Regional Weather Roundup
Issued by NWS

Home | Current Version | Previous Version | Text Only | Print | Product List | Glossary Off
Versions: 1 2 3 4 5 6 7 8 9 10 11 12 13 14 15 16 17 18 19 20 21 22 23 24 25 26 27 28 29 30 31 32 33 34 35 36 37 38 39 40 41 42 43 44 45 46 47 48 49 50

000
ASUS43 KDTX 200401
RWRMI
MICHIGAN HOURLY REGIONAL WEATHER ROUNDUP
NATIONAL WEATHER SERVICE DETROIT/PONTIAC MI
1100 PM EST THU JAN 19 2017

NOTE: "FAIR" INDICATES FEW OR NO CLOUDS BELOW 12,000 FEET WITH NO
SIGNIFICANT WEATHER AND/OR OBSTRUCTION TO VISIBILITY.

MIZ047>049-052>055-059>063-066>070-074>076-081>083-200500-
SOUTHEAST LOWER MICHIGAN

CITY           SKY/WX    TMP DP  RH WIND       PRES   REMARKS
ADRIAN         MOCLDY    34  33  96 E6        29.89F FOG     WCI  29
ALMA           CLOUDY    32  32  99 S3        29.88F FOG
ANN ARBOR      CLOUDY    34  34 100 NE3       29.89F FOG
BAD AXE        FOG       31  31 100 S5        29.91F VSB 1/2 WCI  26
CARO           FOG       32  32 100 E6        29.89F VSB 1   WCI  26
DETROIT CITY   FOG       34  34 100 SE5       29.93F VSB 3/4 WCI  30
DETROIT        CLOUDY    35  34  96 E7        29.91F FOG     WCI  29
FLINT          CLOUDY    32  30  92 S5        29.89F WCI  27
GROSSE ILE     FOG       33  32  96 E7        29.90F VSB 3/4 WCI  27
HILLSDALE      CLOUDY    34  32  93 E6        29.84F FOG     WCI  29
HOWELL         CLOUDY    33  32  96 SE8       29.88S FOG     WCI  26

CITY           SKY/WX    TMP DP  RH WIND       PRES   REMARKS
JACKSON        CLOUDY    35  33  92 SE7       29.87S FOG     WCI  29
LAMBERTVILLE   CLOUDY    36  34  92 E6        29.89F FOG     WCI  31
LANSING        CLOUDY    34  31  88 SE10      29.88S FOG     WCI  26
LAPEER         FOG       32  32 100 SE5       29.90F VSB 1/2 WCI  27
MASON          CLOUDY    33  33  99 SE3       29.88S FOG
MONROE         CLOUDY    34  34  99 E6        29.89F FOG     WCI  29
MT. CLEMENS    FOG       33  33  99 SE6       29.92S VSB 3/4 WCI  27
PONTIAC        FOG       32  30  92 SE6       29.88F VSB 1/2 WCI  26
PORT HOPE        N/A     32  31  96 S7        29.90F WCI  26
PORT HURON     FOG       32  32 100 SE3       29.93F VSB 1/2
TRI CITIES     CLOUDY    32  32 100 E6        29.89F FOG     WCI  26
MIDLAND        FAIR      32  31  96 E5        29.88F FOG     WCI  27
TROY           CLOUDY    33  32  94 E5        29.93F FOG     WCI  29
SAGINAW HB     CLOUDY    32  30  93 E5        29.88F FOG     WCI  27
$$
MIZ043>046-050>051-056>058-064>065-071>073-077>080-200500-
SOUTHWEST LOWER MICHIGAN

CITY           SKY/WX    TMP DP  RH WIND       PRES   REMARKS
BATTLE CREEK   CLOUDY    36  34  92 E5        29.85F WCI  32
BENTON HARBOR  LGT RAIN  39  35  86 E8        29.80F FOG     WCI  33
BIG RAPIDS     CLOUDY    33  32  96 SE3       29.85R FOG
COLDWATER      CLOUDY    37  37 100 E9        29.83F FOG     WCI  30
FREMONT        FAIR      35  33  94 SE3       29.84S FOG
HOLLAND        CLOUDY    38  34  85 E7        29.83F WCI  33
GRAND RAPIDS   CLOUDY    36  32  85 E6        29.85F WCI  31
IONIA          FAIR      34  32  92 SE9       29.86S WCI  27
KALAMAZOO      CLOUDY    37  33  85 E5        29.84F FOG     WCI  33
LUDINGTON        N/A     32  32 100 E3        29.83F FOG
MARSHALL       PTCLDY    34  34  98 E3        29.85F FOG
MOUNT PLEASANT PTCLDY    31  31  99 CALM      29.87S FOG
MUSKEGON       MOCLDY    38  34  85 E8        29.84F WCI  32
SOUTH HAVEN    LGT RAIN  38  35  90 E9        29.81F WCI  31
$$
MIZ016>042-200500-
NORTHERN LOWER MICHIGAN

CITY           SKY/WX    TMP DP  RH WIND       PRES   REMARKS
ALPENA         CLOUDY    34  32  92 S3        29.90F FOG
BEAVER ISLAND  CLOUDY    34  34  98 CALM      29.89R FOG
BELLAIRE       CLOUDY    30  30  99 CALM      29.87F FOG
CADILLAC       CLOUDY    32  31  96 NE3       29.83F FOG
CHARLEVOIX     CLOUDY    32  32 100 CALM      29.90F FOG
FRANKFORT      CLOUDY    32  32  99 CALM      29.85F FOG
GAYLORD        FOG       34  30  85 CALM      29.85F VSB 1/4
GRAYLING       FOG       33  33  99 SE5       29.87S VSB 3/4 WCI  29
HARBOR SPRINGS CLOUDY    33  33  98 E3        29.89S FOG
HOUGHTON LAKE  FOG       33  32  96 E3        29.87F VSB 1/2
MANISTEE       CLOUDY    32  31  96 CALM      29.84F FOG
OSCODA         CLOUDY    34  33  94 CALM      29.90F FOG
PELLSTON       CLOUDY    34  32  92 E5        29.90S FOG     WCI  30
ROGERS CITY    CLOUDY    34  32  92 CALM      29.91F FOG
TRAVERSE CITY  MOCLDY    32  31  96 CALM      29.85F FOG
$$
MIZ007>008-015-200500-
EASTERN UPPER MICHIGAN

CITY           SKY/WX    TMP DP  RH WIND       PRES   REMARKS
KINROSS        MIX PCPN  32  32 100 SE9       29.88F VSB 3/4 WCI  24
MACKINAC ISLAN CLOUDY    33  33 100 CALM      29.88F FOG
NEWBERRY       FOG       33  32  96 S6        29.84F VSB 1/4 WCI  28
S. S. MARIE    FOG       34  32  92 SE6       29.87F VSB 1   WCI  29
MUNISING         N/A     32  31  96 S6        29.81F WCI  26
$$
MIZ004>006-011>014-085-200500-
CENTRAL UPPER MICHIGAN

CITY           SKY/WX    TMP DP  RH WIND       PRES   REMARKS
MANISTIQUE     FOG       33  32  96 S6        29.86S VSB 1/4 WCI  27
ESCANABA       FOG       31  31 100 SE7       29.85S VSB 1/4 WCI  24
SAWYER-GWINN   FOG       30  30  99 SW9       29.79F VSB 1/2 WCI  22
$$
MIZ001>003-009>011-084-200500-
WESTERN UPPER MICHIGAN

CITY           SKY/WX    TMP DP  RH WIND       PRES   REMARKS
IRON MOUNTAIN  FOG       30  28  92 S5        29.79S VSB 1/2 WCI  25
HOUGHTON       CLEAR     29  27  92 CALM      29.74F FOG
COPPER HARBOR    N/A     35  33  92 SW14      29.74F WCI  26
IRONWOOD       CLEAR     37  31  78 S6        29.75F WCI  32
$$

ABBREVIATIONS USED IN REMARKS
   TC - TEMPERATURE IN CELSIUS
  WCI - WIND CHILL INDEX
   HX - HEAT INDEX
  VSB - VISIBILITY




USA.gov is the U.S. government's official web portal to all federal, state and local government web resources and services.